Regional Weather Roundup
Issued by NWS State College, PA

Home | Current Version | Previous Version | Graphics & Text | Print | Product List | Glossary On
Versions: 1 2 3 4 5 6 7 8 9 10 11 12 13 14 15 16 17 18 19 20 21 22 23 24 25 26 27 28 29 30 31 32 33 34 35 36 37 38 39 40 41 42 43 44 45 46 47 48 49 50
895
ASUS41 KCTP 290010
RWRCTP

REGIONAL WEATHER ROUNDUP
NATIONAL WEATHER SERVICE STATE COLLEGE PA
800 PM EDT SAT MAY 28 2016

Note: "fair" indicates few or no clouds below 12,000 feet with no
significant weather and/or obstructions to visibility.

* = STATION THAT DOES NOT REPORT PRECIPITATION /E.G. RAIN...SNOW...ETC/
    THUNDER OR FOG.

PAZ002>004-007>009-013>016-020>023-029>032-290100-
WESTERN PENNSYLVANIA

CITY           SKY/WX    TMP DP  RH WIND       PRES   REMARKS
ERIE           CLEAR     83  66  56 SE6       30.06R
MEADVILLE      CLOUDY    80  65  59 CALM      30.10R
FRANKLIN*      CLOUDY    72  63  73 N7        30.14R THUNDER
NEW CASTLE     FAIR      82  66  58 SW3       30.10R
BEAVER COUNTY  NOT AVBL
BUTLER*        CLOUDY    84  64  51 SW5       30.13R
PITTSBURGH INT CLOUDY    86  63  45 VRB6      30.09R
PITTSBURGH     PTCLDY    82  63  52 S6        30.10R
INDIANA*       CLEAR     81  68  65 S6        30.15R
LATROBE        PTCLDY    75  68  78 CALM      30.11S
WASHINGTON CO* MOCLDY    82  64  54 W5        30.11R
$$

PAZ004>006-010>012-017>019-024>028-033>037-041-042-045-046-049>053-290100-
CENTRAL PENNSYLVANIA

CITY           SKY/WX    TMP DP  RH WIND       PRES   REMARKS
BRADFORD         N/A     69  64  84 NW8       30.17R
DUBOIS         CLOUDY    79  64  60 SE5       30.13R
CLEARFIELD     CLOUDY    82  62  50 CALM      30.13R
JOHNSTOWN      PTCLDY    75  62  64 CALM      30.16S
ALTOONA        CLEAR     81  64  56 S8        30.14R
STATE COLLEGE  PTCLDY    81  68  65 CALM      30.12R
WILLIAMSPORT   CLEAR     82  72  71 CALM      30.07R
SELINSGROVE    CLEAR     84  67  56 CALM      30.08R
FT INDIANTOWN  CLEAR     83  69  62 S6        30.10R
CAPITAL CITY   CLEAR     86  65  49 S8        30.09R
HARRISBURG     PTCLDY    85  68  56 S8        30.09R
YORK           CLEAR     82  67  60 VRB7      30.11R
$$

PAZ038>040-043-044-047-048-054-055-060>062-067>071-290100-
EASTERN PENNSYLVANIA

CITY           SKY/WX    TMP DP  RH WIND       PRES   REMARKS
SCRANTON       CLEAR     82  67  60 VRB5      30.11R
MOUNT POCONO   PTCLDY    71  66  84 CALM      30.18R
ALLENTOWN      CLEAR     86  65  49 S6        30.10R
QUAKERTOWN*    CLEAR     82  64  54 SW6       30.12S
READING          N/A    N/A N/A N/A MISG      30.10R
LANCASTER      CLEAR     80  65  59 S10G18    30.11R
COATESVILLE    CLEAR     81  63  54 VRB3      30.15R
POTTSTOWN      CLEAR     83  62  49 SW5       30.13R
BLUE BELL      CLEAR     81  66  61 S8        30.11R
DOYLESTOWN     CLEAR     82  64  54 S5        30.11R
WILLOW GROVE   NOT AVBL
NORTH PHILA    CLEAR     85  66  53 S7        30.12R
PHILADELPHIA   PTCLDY    82  64  54 S8        30.12R
$$




USA.gov is the U.S. government's official web portal to all federal, state and local government web resources and services.